Flag for Canada Weather past 2 weeks in Kelowna, British Columbia, Canada

Now
30 °F

Light snow. Ice fog.


Feels Like: 30 °F
Forecast: 30 / 38 °F
Wind: No wind

Location: Kelowna Airport

Current Time: Feb 1, 2015 at 12:09:33 PM

Latest Report: Feb 1, 2015 at 11:00 AM


Visibility: 1 mi

Pressure: 30.13 "Hg

Humidity: 100%

Dew point: 30 °F

Location of KelownaLocation

Historic Weather in Kelowna — Graph

°F

Kelowna temperature yesterday

Maximum temperature yesterday: 39 °F (at 1:00 PM)
Minimum temperature yesterday: 23 °F (at 7:00 AM)
Average temperature yesterday: 32 °F

Past Weeks' High & Low Weather Summary

 TemperatureHumidityPressure
High41 °F (Jan 19, 1:00 PM)100% (Jan 17, 7:00 PM)30.57 "Hg (Jan 17, 7:00 PM)
Low16 °F (Jan 20, 7:53 AM)61% (Jan 31, 2:00 PM)29.70 "Hg (Jan 18, 4:00 AM)
Average33 °F90%30.29 "Hg
* Reported Jan 17 11:00 AM — Feb 1 11:00 AM, Kelowna, Weather by CustomWeather, © 2014

Note: Actual official high and low records may vary slightly from our data, if they occured in-between our weather recording intervals... More about our weather records

Advertising

Kelowna weather history for previous 24 hours

 ConditionsComfort  
Time TempWeatherWind HumidityBarometerVisibility
11:00 AM
Feb 1
30 °FLight snow. Ice fog.No wind100%30.13 "Hg1 mi
10:00 AM30 °FLight snow. Ice fog.2 mph100%30.14 "Hg1 mi
9:00 AM30 °FLight snow. Overcast.No wind100%30.16 "Hg1 mi
8:00 AM30 °FLight snow. Ice fog.3 mph100%30.18 "Hg1 mi
7:00 AM30 °FLight snow. Ice fog.3 mph100%30.20 "Hg1 mi
6:00 AM30 °FLight snow. Ice fog.3 mph100%30.23 "Hg1 mi
5:02 AM30 °FLight snow. Overcast.3 mph93%30.24 "Hg2 mi
4:00 AM30 °FOvercast.3 mph86%30.26 "Hg9 mi
3:00 AM30 °FOvercast.No wind86%30.27 "Hg9 mi
2:00 AM28 °FPassing clouds.No wind93%30.30 "Hg9 mi
1:00 AM30 °FPassing clouds.2 mph86%30.30 "Hg9 mi
12:00 AM30 °FPassing clouds.No wind86%30.31 "Hg9 mi
11:00 PM
Jan 31
30 °FPassing clouds.3 mph86%30.32 "Hg9 mi
10:00 PM30 °FOvercast.No wind86%30.35 "Hg9 mi
9:00 PM30 °FPassing clouds.5 mph86%30.37 "Hg9 mi
8:00 PM30 °FPassing clouds.2 mph86%30.37 "Hg9 mi
7:00 PM32 °FPassing clouds.No wind80%30.37 "Hg9 mi
6:00 PM36 °FMostly cloudy.2 mph70%30.37 "Hg9 mi
5:00 PM36 °FMostly cloudy.2 mph70%30.36 "Hg9 mi
4:00 PM37 °FMostly cloudy.No wind65%30.36 "Hg9 mi
3:00 PM39 °FPartly sunny.2 mph61%30.36 "Hg9 mi
2:00 PM39 °FSunny.7 mph61%30.36 "Hg9 mi
1:00 PM39 °FSunny.5 mph65%30.37 "Hg9 mi
12:00 PM37 °FSunny.5 mph70%30.37 "Hg9 mi
Weather by CustomWeather, © 2014

See weather overviewHow to use our weather pages